Location: Altleiningen
(49.5078°N, 8.0741°E)
Time: 04:11:23
(UTC+00:00)

Cosmos 1140 Rocket - Pass Details

Date: 14 June 2025
Orbit: 741 x 762 km, 74.1° (Epoch: 12 July)

Event Time Altitude Azimuth Distance (km) Brightness Sun altitude
Exits shadow 22:26:52 14° 212° (SSW) 1,968 5.2 -15.9°
Maximum altitude 22:31:13 72° 295° (WNW) 787 3.6 -16.1°
Drops below altitude 10° 22:36:21 10° 20° (NNE) 2,266 6.8 -16.3°
Sets 22:38:43 0° 23° (NNE) 3,192 7.7 -16.4°
